Terminal Aerodrome Forecast
Issued by NWS Lake Charles, LA

Home | Current Version | Previous Version | Text Only | Print | Product List | Glossary On
Versions: 1 2 3 4 5 6 7 8 9 10 11 12 13 14 15 16 17 18 19 20 21 22 23 24 25 26
000
FTUS44 KLCH 211900 AAA
TAFLCH
TAF AMD
KLCH 211906Z 2119/2218 15003KT P6SM OVC004
     FM212000 16005KT P6SM SCT005 BKN015
     FM220500 16003KT 5SM BR BKN015
     FM220900 18005KT 2SM BR OVC007=

USA.gov is the U.S. government's official web portal to all federal, state and local government web resources and services.